Regional Weather Roundup
Issued by NWS Grand Forks, ND

Home | Current Version | Previous Version | Graphics & Text | Print | Product List | Glossary On
Versions: 1 2 3 4 5 6 7 8 9 10 11 12 13 14 15 16 17 18 19 20 21 22 23 24 25 26 27 28 29 30 31 32 33 34 35 36 37 38 39 40 41 42 43 44 45 46 47 48 49 50
000
ASUS43 KFGF 300231
RWRFGF
PRAIRIE TO PINES  WEATHER ROUNDUP
NATIONAL WEATHER SERVICE EASTERN NORTH DAKOTA/GRAND FORKS ND
900 PM CDT FRI AUG 29 2014

 **SATELLITE DATA USED TO AUGMENT SKY COVER AT AUTOMATED STATIONS**
 *****  WEATHER ACROSS EASTERN NORTH DAKOTA  *****

CITY           SKY/WX    TMP DP  RH WIND       PRES   REMARKS
GRAND FORKS    CLOUDY    62  57  83 N16       29.88R
GRAND FRKS AFB CLOUDY    61  61 100 N14       29.90R
GRAND FRKS NWS   N/A     61 N/A N/A N10         N/A
DEVILS LAKE    PTCLDY    57  48  72 N8        29.94R
FARGO          CLOUDY    64  57  78 N17       29.84R
WAHPETON ARPT  MOCLDY    66  63  88 NW14      29.81R
$$

 ***** WEATHER ACROSS CENTRAL AND WESTERN NORTH DAKOTA  *****

CITY           SKY/WX    TMP DP  RH WIND       PRES   REMARKS
BISMARCK       CLEAR     64  54  69 NE8       29.96R
MINOT          CLEAR     57  51  80 CALM      29.96R
JAMESTOWN      CLOUDY    61  55  81 N7        29.93R
MINOT AFB      CLEAR     62  52  69 E3        29.95S
GARRISON         N/A     60  53  77 NE3       29.96S
WILLISTON      MOCLDY    65  49  56 SE3       29.95F
DICKINSON      CLEAR     61  51  70 NE5       29.97S
HETTINGER      CLEAR     59  52  77 NE7       29.99R
$$

 *****  OTHER AIRPORT OBSERVATIONS IN OUR AREA  *****

CITY           SKY/WX    TMP DP  RH WIND       PRES   REMARKS
WALHALLA         N/A     57  57 100 NW8       29.94R
GRAFTON AIRPOR FAIR      59  55  88 N12       29.91R
VALLEY CITY AR CLOUDY    59  59 100 N15       29.91R
CANDO          FAIR      55  50  82 N5        29.96R
CAVALIER APRT  FAIR      59  55  88 N8        29.93R
GWINNER        CLOUDY    64  61  88 N14G22    29.88R
SHEYENNE NWR     N/A     64  60  87 N13       29.95
ROLLA          FAIR      50  50 100 N3        29.97R
 ***** THE ABOVE OBSERVATIONS ARE NON NWS ARE NOT QUALITY
       CONTROLLED AND MAY MIS-REPORT RAIN FOR SNOW...
$$

  *****  WEATHER ACROSS NORTHERN MINNESOTA  *****

CITY           SKY/WX    TMP DP  RH WIND       PRES   REMARKS
FLAG ISLAND    CLOUDY    63  57  82 N13       29.87R
WARROAD        CLOUDY    61  55  82 N9        29.88R
ROSEAU         MOCLDY    59  54  82 N8        29.88R
HALLOCK        CLEAR     61  55  82 N10       29.90R
THF RVR FALLS  CLOUDY    61  57  88 N13       29.87R
BAUDETTE       LGT RAIN  60  57  89 N13       29.84R
WASKISH        CLOUDY    64  63  94 N10       29.82R
CROOKSTON      RAIN      61  57  88 N14       29.88R
$$
  *****  WEATHER ACROSS CENTRAL AND WEST MINNESOTA  *****

CITY           SKY/WX    TMP DP  RH WIND       PRES   REMARKS
FOSSTON        CLOUDY    63  61  94 N15       29.84R
BEMIDJI        CLOUDY    66  64  92 NW5       29.81R
PARK RAPIDS    MOCLDY    66  64  93 CALM      29.80R
ELBOW LAKE     FAIR      65  64  98 NW3       29.81R
WADENA         MOCLDY    66  64  94 CALM      29.80S
DETROIT LAKES  PTCLDY    64  63  94 NW5       29.83R
MOORHEAD       CLOUDY    64  63  94 N16       29.84R
FERGUS FALLS   MOCLDY    66  64  94 CALM      29.81R
MORRIS MN      MOCLDY    66  66 100 N5        29.79S
STAPLES        CLOUDY    66  64  94 W3        29.80R
$$
  *****  WEATHER ELSEWHERE ACROSS MINNESOTA  *****

CITY           SKY/WX    TMP DP  RH WIND       PRES   REMARKS
DULUTH         CLOUDY    62  60  93 CALM      29.80R FOG
INTRNTL FALLS  CLOUDY    64  62  93 N6        29.81R
ELY            CLOUDY    61  59  94 CALM      29.82R
CLOQUET        FOG       63  61  94 CALM      29.80R VSB 3/4
WHEATON        MOCLDY    66  64  94 CALM      29.82R
BRAINERD       CLOUDY    67  65  93 CALM      29.79R
HIBBING        CLOUDY    65  62  90 CALM      29.81R
ALEXANDRIA     CLOUDY    69  65  86 N5        29.81R
SAINT CLOUD    CLOUDY    71  68  90 CALM      29.77R
MINNEAPOLIS    CLOUDY    70  69  97 VRB7      29.76R
$$

  *****  WEATHER ACROSS SOUTH DAKOTA  *****

CITY           SKY/WX    TMP DP  RH WIND       PRES   REMARKS
SIOUX FALLS    CLOUDY    67  66  97 CALM      29.82R
BROOKINGS      NOT AVBL
WATERTOWN      CLOUDY    70  65  84 N12       29.83R
HURON          CLOUDY    71  63  75 N15       29.84R
SISSETON         N/A     69  66  90 N9        29.80R
ABERDEEN       MOCLDY    63  60  90 N12       29.87R
MITCHELL       CLOUDY    67  65  93 NW5       29.83R
PIERRE         CLEAR     66  59  78 N8        29.90R
MOBRIDGE       CLEAR     63  58  83 N10       29.91R
RAPID CITY     CLEAR     63  53  70 NE6       30.00R
$$

  *****  SOME WEATHER IN NEARBY STATES *****

CITY           SKY/WX    TMP DP  RH WIND       PRES   REMARKS
GLASGOW MT     CLEAR     64  53  67 SE7       29.90F
GREAT FALLS MT CLEAR     76  42  29 S3        29.81F
CHEYENNE WY    MOCLDY    60  50  69 CALM      30.16S
SCOTTSBLUFF NE CLEAR     67  59  75 E8        30.03R
OMAHA NE       MOCLDY    71  67  87 CALM      29.80R
DES MOINES IA  LGT RAIN  71  68  90 SW6       29.78R
DAVENPORT IA   CLOUDY    75  70  84 S10       29.82R
CHICAGO IL     MOCLDY    77  68  73 S13       29.89R
EAU CLAIRE WI  RAIN      68  67  96 S7        29.79R
LA CROSSE WI   LGT RAIN  72  68  87 CALM      29.79R
$$

  *****  SOME NATIONAL WEATHER *****

CITY           SKY/WX    TMP DP  RH WIND       PRES   REMARKS
LA GUARDIA NY  MOCLDY    70  53  54 S8        30.24R
RALEIGH NC     PTCLDY    75  70  84 E5        30.17R
ATLANTA GA     MOCLDY    83  61  47 SE3       30.08R
NEW ORLEANS LA CLOUDY    79  75  87 S10       29.97R
OKLAHOMA CITY  PTCLDY    75  66  73 S6        29.89R
ALBUQUERQUE NM PTCLDY    78  40  25 SE8       30.08S
SALT LAKE CITY MOCLDY    80  40  23 S5        29.95F
LOS ANGELES CA PTCLDY    71  61  70 SW9       29.81S
BOISE ID       MOCLDY    87  41  19 W5        29.79F
SEATTLE WA     MOCLDY    70  54  56 SW12      29.95F
$$

*** WEATHER ACROSS MANITOBA...SASKATCHEWAN AND ONTARIO ***
                ***ONTARIO***

CITY           SKY/WX    TMP DP  RH WIND       PRES   REMARKS
GERALDTON      CLOUDY    57  57 100 W2        29.82
THUNDER BAY    CLOUDY    59  57  94 N2        29.80R
SIOUX LOOKOUT  LGT RAIN  55  55 100 NE5       29.82R
TORONTO        MOCLDY    64  57  77 SE7       30.11S
BIG TROUT LK   PTCLDY    55  52  88 N7        29.82R
PICKLE LAKE    LGT RAIN  57  55  94 N2        29.82R
DRYDEN         CLOUDY    55  54  94 N7        29.85R
KENORA         MOCLDY    59  55  88 N7        29.88R
$$
                *** MANITOBA***

CITY           SKY/WX    TMP DP  RH WIND       PRES   REMARKS
BRANDON        CLEAR     54  48  82 E8        29.96R
DAUPHIN        CLEAR     55  50  82 S5        29.96R
ISLAND LAKE    PTCLDY    54  48  82 NW6       29.91R
PILOT MOUND      N/A     54  50  87 N6          N/A
THE PAS        PTCLDY    52  43  71 SE2       29.93S
THOMPSON       MOCLDY    52  45  76 W3        29.92R
WINNIPEG       CLEAR     55  48  76 N9        29.93R
LYNN LAKE      PTCLDY    50  43  76 MISG      29.91S
CHURCHILL      MOCLDY    52  41  66 NW13      29.76R
GILLAM         MOCLDY    55  41  58 W9        29.87S
$$
                ***SASKATCHEWAN***

CITY           SKY/WX    TMP DP  RH WIND       PRES   REMARKS
ESTEVAN        PTCLDY    63  50  63 E3        29.96F
KINDERSLEY     MOCLDY    64  48  55 SE10      29.79F
LLOYDMINSTER   MOCLDY    61  45  55 SE15      29.76F
PRINCE ALBERT  CLOUDY    57  46  67 SE5       29.91S
REGINA         PTCLDY    61  46  59 E6        29.93F
YORKTON        CLEAR     57  46  67 CALM      29.96S
N. BATTLEFORD  CLEAR     61  48  63 SE12G17   29.85F
LA RONGE       MOCLDY    55  45  67 SE6       29.89F
SASKATOON      MOCLDY    63  45  51 SE13      29.89F
SWIFT CURRENT  CLEAR     63  48  59 S9        29.85F
$$
NOTE: THESE ARE AUTOMATED STATIONS WITH LIMITED QUALITY CONTROL
      "FAIR" INDICATES FEW OR NO CLOUDS BELOW 12,000 FEET WITH NO
      SIGNIFICANT WEATHER AND/OR OBSTRUCTIONS TO VISIBILITY.
      SKY/WX - SKY CONDITION AND SIGNIFICANT WEATHER.
      TMP - AIR TEMPERATURE.    DP   - DEWPOINT TEMPERATURE.
      RH  - RELATIVE HUMIDITY.  PRES - PRESSURE.
      HX  - HEAT INDEX.         WCI  - WIND CHILL INDEX.
$



USA.gov is the U.S. government's official web portal to all federal, state and local government web resources and services.